Terminal Aerodrome Forecast
Issued by NWS Amarillo, TX

Home | Current Version | Previous Version | Text Only | Print | Product List | Glossary On
Versions: 1 2 3 4 5 6 7 8 9 10 11 12 13 14 15 16 17 18 19 20 21 22 23 24 25 26 27 28
721
FTUS44 KAMA 161623 AAB
TAFAMA
TAF AMD
KAMA 161623Z 1616/1712 29010KT P6SM BKN020 OVC040
     FM161700 33014KT P6SM SCT020 SCT050
     FM162200 33008KT P6SM SCT060 BKN200
     FM170600 31009KT P6SM SCT035 BKN060=

USA.gov is the U.S. government's official web portal to all federal, state and local government web resources and services.